Wind_Speed
12 11 11 10 9 10 10 11 11 11 11 11 11 11 11 11 12 12 12 12 12 12 11 11 12 13 13 13 11 9 8 7 7 7 8 6 5 4 4 9 15 17 19 17 17 20 20 18 15 13 12 11 9 10 10 9 10 11 9 8 6 6
12 11 11 10 10 10 10 10 10 10 10 10 10 10 11 11 12 13 12 12 12 12 12 11 11 12 12 13 12 10 9 8 8 8 8 6 4 4 3 7 14 17 19 19 18 20 21 19 17 15 14 12 10 9 10 9 9 10 10 8 6 5
12 11 11 11 11 10 10 10 9 9 9 9 10 10 10 11 12 12 12 12 12 13 12 12 12 12 12 13 12 10 10 10 9 9 8 6 4 4 4 5 12 17 19 21 19 19 21 20 19 17 14 13 11 10 10 10 9 9 9 8 7 5
13 11 11 12 12 12 11 11 10 10 9 10 10 10 10 11 11 12 12 13 13 13 12 12 12 12 13 12 11 10 11 11 10 9 8 6 5 4 4 4 9 16 19 22 21 19 20 21 20 18 15 14 12 11 11 12 11 9 8 8 7 6
14 13 13 14 13 12 13 12 11 11 11 10 10 11 11 10 11 12 12 13 14 13 12 13 13 13 13 12 11 11 12 12 10 10 8 7 6 5 5 4 4 14 20 22 22 19 18 20 20 18 16 15 13 12 12 12 11 10 8 7 6 5
14 14 15 15 13 13 14 14 13 13 12 12 11 11 11 10 10 11 12 13 14 14 13 14 14 14 13 13 12 12 13 13 12 11 10 8 7 6 5 5 4 9 18 22 22 19 17 18 20 19 16 15 14 13 13 12 10 10 9 8 6 5
14 14 15 14 13 14 15 15 15 15 15 13 12 12 11 10 10 10 12 14 14 14 14 15 15 15 14 14 14 13 13 14 14 12 10 9 8 7 6 6 5 8 17 22 22 20 17 16 18 19 17 16 15 13 13 12 10 10 9 8 6 4
13 13 13 13 13 13 14 14 15 15 15 13 13 13 11 11 11 11 11 13 15 16 16 14 14 15 14 15 14 13 14 14 14 12 11 9 9 8 6 6 6 9 17 21 22 20 18 15 16 18 18 17 16 14 13 12 10 10 9 7 5 4
10 11 11 11 12 12 12 13 13 13 12 12 13 14 13 13 13 12 12 11 13 15 16 14 14 14 14 15 14 14 14 13 14 14 12 10 9 8 6 5 6 11 17 20 21 19 17 14 14 16 18 18 17 15 13 13 11 10 8 6 4 3
9 10 10 11 11 12 12 12 12 12 11 11 12 13 14 15 15 16 15 13 13 14 15 14 13 14 14 15 15 13 11 11 14 14 12 11 10 9 7 5 6 12 16 17 19 17 15 13 12 14 17 19 18 17 15 14 13 11 8 7 5 5
10 10 11 11 11 12 13 13 12 12 12 12 12 13 15 17 17 18 17 15 14 14 15 14 14 15 15 15 14 12 10 11 12 11 11 11 11 10 9 6 7 14 15 16 18 16 15 13 12 12 15 19 20 19 17 15 14 12 10 8 7 6
10 10 11 11 10 11 11 12 11 11 12 13 13 14 15 15 16 18 18 16 15 15 15 15 16 15 14 14 12 11 12 11 9 7 10 13 13 12 12 9 10 16 17 17 18 16 16 14 13 11 13 17 20 21 20 18 16 14 12 9 7 6
9 10 10 10 10 10 10 9 8 8 9 11 12 13 13 12 13 17 18 17 16 16 16 15 16 14 13 13 11 10 11 10 8 6 10 14 15 16 15 13 13 17 18 17 17 16 15 15 14 12 12 15 19 21 21 21 19 16 14 11 9 6
9 10 11 11 10 9 8 7 6 6 7 8 10 10 10 10 11 14 16 17 17 17 15 14 16 13 12 13 12 11 10 10 10 7 8 11 15 16 17 17 17 18 18 18 17 16 15 14 14 13 12 14 16 20 21 22 20 18 16 13 10 8
9 10 11 10 9 9 8 7 6 6 6 7 8 8 8 8 10 10 11 13 15 15 13 12 12 10 10 12 12 11 9 9 11 10 9 10 14 16 17 20 20 20 19 19 17 16 16 15 14 12 13 14 16 19 21 21 20 19 17 15 12 10
9 10 10 9 8 8 8 7 7 7 7 6 7 7 6 6 7 9 8 8 9 10 11 11 10 9 10 12 11 10 9 10 11 11 11 11 13 14 16 19 22 22 21 20 19 17 17 17 15 14 13 14 16 18 20 20 19 17 16 14 12 11
9 9 9 9 8 8 8 8 7 7 7 7 7 7 7 5 5 7 7 7 6 7 9 9 10 10 12 12 11 11 11 11 11 11 12 12 12 12 13 17 21 24 24 22 21 19 19 19 18 16 14 15 16 17 18 18 17 17 15 14 13 12
8 8 8 9 9 9 8 8 7 7 7 7 7 8 8 6 6 6 6 6 6 7 8 8 9 10 11 10 9 10 10 9 9 11 12 13 12 12 12 14 18 22 25 25 22 21 22 23 21 19 15 15 16 16 17 18 18 17 16 15 14 13
8 8 9 10 10 9 9 8 7 7 7 7 7 7 8 8 8 8 8 8 9 10 10 11 11 11 11 9 8 9 10 10 10 10 9 13 14 14 13 13 15 19 23 25 23 21 22 25 24 20 17 15 16 17 17 17 17 17 16 15 15 15
8 9 9 10 10 10 9 7 7 6 6 6 5 6 6 7 7 8 8 9 10 11 12 12 13 13 12 11 9 9 9 10 11 10 7 11 14 13 12 13 13 15 18 20 20 19 19 22 21 17 16 15 14 16 17 17 17 16 15 14 15 16
8 9 9 10 10 8 7 6 5 4 3 3 2 1 2 3 4 5 6 8 9 11 11 12 13 13 12 11 9 8 7 7 8 8 6 7 10 10 10 11 12 13 14 15 17 17 16 16 16 14 13 15 15 14 14 16 18 17 15 14 14 16
8 8 9 9 8 6 5 5 5 5 4 4 4 4 2 1 2 2 3 4 5 7 8 8 10 10 10 8 8 7 6 5 5 5 5 5 6 4 4 6 10 12 10 12 14 14 13 12 12 12 13 13 13 14 14 16 18 17 17 16 15 16
9 9 10 9 8 7 8 8 7 6 6 6 5 5 4 3 3 3 4 4 4 3 3 3 5 6 6 5 5 5 4 3 3 3 4 5 4 3 3 2 5 7 6 6 7 7 8 9 10 12 13 12 11 13 16 18 18 17 16 17 17 17
10 10 11 11 10 10 11 11 9 8 8 7 6 5 6 6 7 8 9 9 9 8 7 5 2 2 2 2 3 3 2 2 1 2 3 4 4 3 3 2 2 2 3 3 3 3 4 6 8 9 10 8 8 11 12 14 17 17 17 17 18 18
11 11 12 12 13 13 13 12 10 9 8 8 7 7 7 7 8 9 10 10 11 10 10 9 6 3 1 0 1 1 1 1 1 1 2 3 3 3 3 2 2 2 2 2 1 2 3 3 3 5 6 4 5 7 7 9 12 14 15 16 16 18
13 13 13 14 14 15 15 13 10 8 8 9 9 7 7 7 7 8 9 10 11 11 11 11 10 7 4 1 1 1 2 2 2 2 3 3 4 3 3 3 3 3 3 3 2 1 2 3 2 3 5 4 4 5 5 6 8 10 11 12 13 16
15 14 14 14 15 16 15 13 10 8 7 8 8 7 6 6 6 7 8 9 10 10 10 11 12 11 9 6 4 3 1 1 2 3 3 4 4 5 5 6 5 5 5 4 4 4 4 4 4 4 5 5 6 6 6 5 5 7 8 9 11 12
16 16 15 15 16 16 15 14 12 9 8 8 7 6 5 5 5 5 6 8 8 8 9 10 11 11 11 10 9 8 6 4 3 1 1 2 3 4 5 6 7 7 7 7 7 7 8 8 7 7 7 7 8 8 8 7 7 7 8 10 13 13
18 18 17 16 16 16 15 14 13 12 10 10 9 8 7 5 5 4 5 6 6 7 7 8 8 9 10 10 9 9 8 7 5 4 4 4 3 3 4 4 6 7 8 8 9 9 9 10 10 10 10 10 10 10 9 9 9 8 9 11 13 15
20 19 18 17 17 17 16 16 15 13 12 11 10 9 8 7 6 5 4 4 4 5 5 6 6 7 8 8 7 7 7 6 5 4 4 4 3 3 3 3 4 5 7 7 9 10 10 11 11 12 12 12 13 12 12 12 11 10 10 10 12 13
22 21 20 19 18 18 17 16 16 14 13 12 11 9 8 7 6 5 5 4 3 3 3 4 4 5 5 6 5 5 5 5 4 4 4 3 3 3 3 4 5 5 5 6 7 9 10 11 12 12 13 13 14 14 14 14 14 13 13 12 13 14
25 24 23 21 20 19 19 18 17 16 14 13 12 10 7 6 6 5 6 6 5 4 3 3 3 3 4 4 4 4 4 3 3 4 4 4 5 5 5 6 7 7 6 6 6 6 8 10 12 13 13 14 14 14 14 15 15 15 15 16 17 19
27 26 25 24 22 21 20 19 18 17 15 14 13 12 9 7 7 7 7 7 6 5 5 4 3 3 3 2 2 2 2 2 3 4 5 5 5 5 6 7 8 8 9 8 7 7 7 8 9 10 11 13 14 14 14 15 16 16 17 18 19 21
29 28 27 26 24 22 21 20 19 18 16 16 15 14 12 9 9 9 9 8 7 6 6 6 5 5 4 3 3 2 1 1 2 4 5 5 6 6 6 7 7 8 9 9 9 9 8 8 8 9 9 10 11 13 13 14 15 16 17 19 19 20
31 30 30 29 27 25 23 21 21 20 19 18 17 16 14 12 11 11 11 10 8 8 8 7 8 8 7 6 5 4 3 3 3 4 5 6 6 7 7 7 8 8 9 9 9 9 9 8 8 9 9 10 10 10 12 13 14 15 16 18 19 20
33 32 31 30 29 27 25 23 23 22 21 20 19 18 17 15 14 13 12 12 10 9 9 9 10 10 9 8 7 6 5 5 5 5 6 7 7 7 7 8 8 9 9 10 10 10 10 9 9 9 9 10 11 10 11 11 12 13 14 15 17 18
34 33 33 32 31 29 27 26 25 24 24 23 21 20 19 18 16 15 14 13 12 12 11 12 12 12 11 10 9 8 7 7 7 7 8 8 8 8 8 9 10 10 10 10 10 10 10 10 10 10 10 10 11 11 12 11 11 12 12 14 15 15
Wind_Direction
185 182 183 182 183 185 186 189 192 195 197 202 204 207 212 214 216 218 225 228 220 212 215 219 213 208 207 204 203 204 211 215 218 215 201 203 210 212 211 193 192 198 205 206 206 203 201 203 204 209 215 209 196 175 164 160 146 139 137 132 128 119
192 190 190 189 191 194 195 197 198 199 200 205 206 209 214 216 219 222 226 227 221 215 215 220 217 214 212 208 209 213 216 218 220 218 207 209 226 232 244 204 193 196 203 206 207 203 201 202 201 208 218 215 211 193 175 169 157 144 138 136 136 126
197 198 198 198 201 202 205 207 209 211 211 213 214 214 215 219 221 224 228 230 226 221 220 222 222 219 217 214 215 220 223 223 219 217 209 210 234 249 272 226 196 196 202 206 206 204 203 203 201 206 218 217 215 207 186 177 171 155 143 140 141 136
203 206 205 207 210 210 212 215 216 217 220 222 223 222 221 223 223 224 227 230 229 225 224 225 225 222 219 215 218 226 227 227 223 216 211 213 235 255 280 266 202 198 202 205 205 205 206 207 206 206 215 218 215 210 195 184 177 165 154 146 144 145
209 211 214 216 214 216 220 221 223 222 224 226 230 230 229 231 229 230 231 230 229 229 230 229 225 224 223 219 223 228 226 228 227 221 218 218 232 249 269 291 234 203 201 203 203 204 207 210 210 208 211 215 213 206 199 193 182 169 165 158 151 152
211 213 220 225 219 222 226 229 230 227 226 225 232 237 235 239 239 239 239 237 234 235 236 230 226 225 226 226 228 227 225 228 227 224 223 221 228 240 252 277 279 213 202 200 200 202 207 211 213 210 209 210 208 203 201 200 191 177 169 164 162 160
207 212 220 226 225 226 229 233 235 237 236 230 233 241 242 246 248 248 248 246 245 245 241 233 228 228 228 230 233 229 226 228 228 227 223 221 224 232 246 260 269 217 202 199 199 201 206 211 213 211 208 207 206 203 203 205 199 188 175 167 166 163
204 210 216 221 225 228 230 235 240 243 245 240 238 242 246 248 252 254 254 252 252 250 242 234 230 230 232 235 238 234 228 227 230 230 226 225 223 228 242 257 252 208 197 198 199 202 208 210 211 212 208 205 207 206 206 207 201 192 184 175 169 165
207 210 216 220 226 230 233 238 242 244 242 240 240 242 245 246 250 252 253 252 251 248 241 234 231 233 236 239 240 236 231 229 233 230 227 229 225 226 233 252 242 199 191 196 199 203 207 207 205 209 206 201 207 211 209 207 203 199 197 197 196 195
219 220 225 228 233 234 236 239 243 248 244 241 241 243 244 244 247 248 249 246 242 244 243 238 234 235 239 243 245 246 242 238 240 232 224 228 225 223 218 229 221 192 188 191 197 202 203 202 200 203 204 199 204 212 214 212 209 209 212 219 231 239
232 236 241 243 246 243 242 241 242 249 251 250 248 247 244 243 246 247 247 244 239 243 246 245 241 238 240 247 252 261 262 250 249 239 227 225 221 220 210 204 197 186 183 184 190 196 198 198 196 197 201 200 202 210 216 218 217 219 225 234 242 245
244 247 252 255 258 255 252 248 247 249 253 255 251 251 250 249 250 250 249 245 241 241 245 250 251 250 252 260 266 268 270 268 269 253 235 227 220 221 214 201 191 186 183 183 186 191 195 198 197 198 202 202 203 209 216 222 225 229 235 237 233 231
251 253 257 260 261 259 258 256 254 251 252 255 253 256 260 258 254 253 251 246 242 240 244 250 255 261 262 267 273 270 273 277 277 248 231 231 226 223 215 204 194 190 189 190 191 194 198 200 200 201 203 204 206 209 217 224 229 235 238 231 219 218
255 258 260 261 258 255 256 255 253 249 250 257 261 267 269 265 260 257 251 246 244 241 244 251 254 261 265 269 275 275 275 274 269 249 230 233 233 225 214 207 200 196 199 200 202 205 205 205 206 208 207 209 209 210 218 225 232 236 233 224 217 218
257 259 258 254 251 247 248 247 245 247 249 256 266 275 276 268 263 262 255 251 251 246 246 253 260 270 274 274 278 277 274 267 262 256 242 236 235 229 218 213 207 202 205 207 213 217 215 212 214 217 218 220 215 213 219 224 229 230 226 223 225 226
253 254 249 242 239 237 241 245 245 245 248 253 261 268 272 268 259 259 261 264 267 265 263 266 272 281 276 273 277 275 269 258 252 252 249 240 233 229 222 219 213 208 209 212 217 222 222 220 219 220 223 226 221 217 220 222 225 225 223 228 234 234
244 246 243 237 238 240 241 244 247 251 251 251 252 255 260 263 259 260 265 268 274 281 283 282 284 284 276 275 280 277 270 261 253 250 248 243 238 234 228 224 218 214 214 216 217 222 226 226 222 221 221 223 223 221 221 223 225 224 225 231 237 238
229 232 235 239 241 246 248 249 249 253 254 251 249 249 251 257 262 266 269 272 276 280 284 285 286 287 286 288 287 275 268 265 262 257 245 239 242 242 234 229 226 219 219 222 222 225 230 231 228 224 220 219 222 222 220 223 225 226 229 232 236 240
216 217 226 235 240 246 252 255 252 250 250 249 249 249 251 253 257 262 268 273 279 281 283 283 282 284 288 292 290 277 270 267 272 274 250 233 237 241 237 233 231 224 223 228 231 236 237 236 236 230 218 217 222 225 224 227 231 233 236 239 241 244
207 211 220 230 237 241 244 246 246 245 244 244 247 254 257 257 255 257 265 273 279 284 287 289 288 287 287 287 285 281 280 274 277 288 265 228 226 232 235 235 233 227 225 231 238 245 244 244 248 241 222 216 220 226 229 233 239 242 245 249 249 247
200 203 214 227 233 230 229 228 222 212 211 212 190 202 245 257 263 267 276 283 288 291 293 293 291 291 292 291 286 283 285 281 279 292 289 244 228 227 230 229 230 226 222 230 240 245 246 250 259 257 239 227 220 222 231 237 242 247 252 257 254 248
195 192 202 217 218 204 197 193 181 166 156 138 117 111 115 155 264 282 294 299 300 299 298 296 292 289 290 293 291 287 283 281 276 284 292 276 261 259 254 229 231 236 232 235 240 241 244 248 253 255 255 249 232 222 228 234 240 246 252 256 254 250
192 184 191 196 191 180 172 165 161 153 139 125 114 109 109 111 105 90 76 64 50 23 359 330 307 295 293 294 296 298 294 280 269 271 278 282 291 313 325 281 247 255 256 244 231 228 242 246 243 247 255 259 249 237 233 234 238 244 249 251 250 251
190 183 187 185 181 176 168 163 161 149 138 132 121 118 116 110 100 93 85 80 72 63 59 50 23 325 305 303 300 307 312 294 268 269 273 283 295 300 306 312 294 282 276 253 203 181 227 246 241 239 245 249 248 248 246 242 241 243 246 247 246 247
189 186 188 185 183 181 175 171 166 155 152 150 137 127 120 111 103 95 88 82 75 69 69 70 70 63 29 312 292 289 288 292 292 286 283 290 303 310 309 305 295 294 288 276 238 169 202 242 245 222 215 212 224 238 249 250 250 247 240 241 247 248
193 190 189 187 187 187 184 177 167 153 152 154 144 137 129 118 107 97 90 84 78 74 74 78 82 82 76 67 317 284 270 264 260 269 287 300 312 315 308 305 301 293 284 275 275 231 221 243 266 233 213 209 224 235 248 257 267 268 249 238 248 252
199 195 192 190 189 190 189 179 166 149 142 150 150 145 140 132 117 103 94 87 83 79 77 81 87 90 90 85 80 72 42 287 269 270 279 286 295 301 300 301 300 293 289 281 269 262 258 256 253 244 235 234 243 245 250 256 269 286 281 255 245 245
205 201 196 195 193 193 191 182 172 165 159 162 163 161 162 157 136 120 107 97 92 86 83 86 90 94 97 94 90 88 84 80 73 43 353 314 306 314 315 311 307 301 295 289 280 272 268 266 258 250 246 243 246 249 252 256 256 269 283 276 262 252
210 207 202 200 199 197 195 188 182 180 176 175 179 184 188 184 166 146 126 113 106 98 92 93 96 99 100 100 99 96 94 91 88 82 70 59 42 15 352 332 320 311 302 296 291 283 274 270 267 263 258 251 250 252 252 254 255 256 265 274 276 271
215 213 207 207 206 202 200 197 193 191 188 188 193 194 195 196 191 176 158 143 131 118 106 102 106 108 107 105 102 99 98 96 93 89 81 71 58 34 11 351 332 317 308 300 292 288 283 278 275 272 269 264 260 259 258 257 256 256 257 263 273 279
219 217 213 213 211 207 206 204 201 199 197 200 206 207 203 205 203 191 181 178 171 157 138 120 117 119 119 117 111 103 96 91 86 78 68 60 49 33 21 12 359 344 326 310 296 287 283 281 280 279 277 275 273 271 270 270 267 265 265 267 270 273
221 220 218 217 216 213 212 211 209 207 205 208 215 218 213 211 211 201 196 199 200 200 198 177 153 142 138 138 128 115 104 92 77 60 45 33 25 20 13 9 4 357 350 339 323 302 288 281 278 277 277 277 276 275 273 273 273 271 270 270 271 273
223 224 222 220 220 219 216 215 215 213 212 214 219 225 220 212 214 214 210 212 212 213 217 215 207 201 185 175 164 136 111 81 58 40 27 16 9 7 4 2 358 351 348 347 341 330 316 299 288 281 277 274 273 272 270 268 268 269 269 269 269 271
226 225 225 224 223 224 222 219 218 217 218 220 223 228 227 219 216 219 219 219 219 221 223 225 227 232 229 220 224 230 288 353 12 9 2 355 351 352 352 352 349 345 343 343 340 337 332 321 309 299 289 280 273 271 270 268 267 265 267 269 269 271
228 226 227 227 226 227 226 224 223 221 221 222 227 232 234 231 224 223 223 222 223 224 227 230 231 237 241 240 244 251 272 305 321 334 337 334 334 337 339 339 339 339 340 340 337 335 331 323 313 304 299 293 286 279 275 273 271 268 265 266 269 272
231 230 230 231 230 231 230 229 228 227 224 224 226 230 234 234 229 227 226 225 226 229 232 236 237 239 243 245 251 257 267 283 296 307 312 314 319 322 325 328 329 332 336 337 335 331 327 323 315 305 296 290 287 286 284 281 278 273 266 262 263 268
232 233 233 234 234 234 233 232 232 231 230 228 228 229 233 234 232 230 230 228 227 229 232 237 241 243 244 247 252 257 265 274 284 293 299 304 309 312 316 319 322 326 329 330 331 328 324 321 317 312 305 295 288 284 282 283 282 279 272 261 256 257
Height
1525 1526 1527 1528 1529 1529 1530 1531 1532 1533 1534 1534 1535 1536 1537 1538 1538 1539 1540 1540 1540 1541 1542 1542 1542 1542 1543 1544 1544 1545 1545 1546 1546 1547 1547 1548 1548 1549 1549 1550 1550 1550 1551 1551 1551 1551 1552 1554 1555 1555 1555 1556 1557 1558 1559 1559 1560 1560 1561 1561 1562 1562
1525 1526 1527 1528 1529 1529 1530 1531 1532 1533 1534 1534 1535 1536 1537 1537 1538 1538 1539 1539 1540 1540 1541 1541 1542 1542 1542 1543 1544 1544 1545 1546 1546 1546 1547 1547 1548 1549 1549 1549 1550 1550 1550 1551 1551 1551 1552 1554 1555 1555 1555 1556 1557 1558 1559 1559 1560 1560 1561 1561 1562 1563
1525 1526 1527 1528 1528 1529 1530 1531 1532 1533 1533 1534 1535 1536 1536 1537 1537 1538 1538 1539 1539 1540 1541 1541 1542 1542 1542 1543 1544 1544 1545 1545 1546 1546 1547 1547 1548 1548 1549 1549 1550 1550 1550 1550 1551 1551 1552 1553 1555 1555 1555 1556 1557 1558 1559 1559 1560 1560 1561 1561 1562 1563
1525 1526 1527 1527 1528 1529 1530 1531 1532 1532 1533 1534 1534 1535 1536 1536 1537 1537 1538 1538 1539 1540 1540 1540 1541 1541 1542 1542 1543 1544 1544 1544 1545 1546 1546 1547 1547 1548 1548 1549 1549 1549 1549 1550 1550 1551 1552 1553 1554 1555 1555 1556 1557 1558 1559 1559 1559 1560 1561 1561 1562 1563
1524 1525 1526 1527 1528 1529 1529 1530 1531 1532 1532 1533 1534 1534 1535 1536 1536 1537 1537 1538 1539 1539 1539 1540 1540 1541 1541 1541 1542 1543 1543 1544 1544 1545 1545 1546 1547 1547 1548 1548 1549 1549 1549 1549 1550 1551 1551 1552 1554 1555 1555 1556 1557 1558 1558 1559 1559 1560 1561 1561 1562 1563
1524 1525 1525 1526 1527 1528 1529 1530 1530 1531 1532 1532 1533 1534 1534 1535 1536 1537 1537 1537 1538 1539 1539 1539 1540 1540 1540 1541 1541 1542 1542 1543 1543 1544 1544 1545 1546 1546 1547 1547 1548 1548 1549 1549 1550 1551 1551 1552 1553 1554 1555 1556 1557 1558 1558 1559 1559 1560 1560 1561 1562 1563
1524 1524 1525 1526 1527 1527 1528 1529 1530 1530 1531 1531 1532 1533 1534 1535 1536 1536 1537 1537 1538 1538 1538 1539 1539 1539 1540 1540 1540 1541 1542 1542 1543 1543 1544 1545 1545 1546 1546 1547 1547 1548 1548 1549 1550 1550 1551 1551 1552 1554 1555 1556 1557 1558 1558 1559 1559 1560 1560 1561 1562 1562
1523 1524 1525 1526 1526 1527 1528 1528 1529 1529 1529 1530 1531 1532 1533 1534 1535 1535 1536 1536 1537 1537 1537 1538 1538 1539 1539 1539 1540 1541 1541 1542 1543 1544 1544 1545 1545 1545 1546 1546 1546 1546 1547 1548 1549 1550 1551 1551 1552 1553 1554 1556 1557 1558 1558 1559 1559 1560 1560 1561 1562 1562
1523 1524 1525 1526 1526 1527 1527 1528 1528 1529 1529 1530 1530 1531 1532 1533 1534 1534 1534 1535 1535 1535 1536 1537 1537 1538 1539 1539 1539 1540 1541 1542 1543 1543 1545 1545 1545 1546 1546 1546 1546 1546 1547 1548 1549 1550 1551 1551 1551 1552 1554 1555 1557 1557 1558 1559 1559 1560 1560 1561 1561 1562
1523 1524 1524 1525 1526 1526 1527 1527 1528 1528 1528 1529 1529 1530 1531 1532 1532 1533 1533 1533 1534 1534 1535 1536 1537 1537 1538 1538 1538 1539 1541 1542 1542 1543 1544 1545 1546 1546 1546 1546 1546 1546 1547 1548 1550 1550 1551 1551 1551 1552 1553 1554 1556 1557 1557 1558 1559 1559 1560 1560 1561 1561
1522 1523 1524 1524 1525 1526 1526 1527 1528 1528 1528 1529 1529 1529 1530 1530 1531 1531 1532 1532 1533 1534 1535 1535 1536 1536 1537 1537 1538 1539 1540 1540 1540 1542 1544 1545 1545 1546 1546 1546 1546 1546 1547 1548 1549 1550 1551 1551 1551 1552 1553 1554 1555 1556 1556 1557 1558 1558 1559 1560 1560 1561
1521 1522 1523 1523 1524 1525 1525 1526 1527 1528 1528 1528 1529 1529 1529 1530 1530 1531 1531 1531 1532 1533 1534 1534 1534 1536 1537 1537 1539 1540 1539 1539 1540 1541 1542 1543 1544 1545 1546 1546 1547 1547 1547 1548 1549 1549 1550 1551 1551 1552 1552 1553 1554 1555 1555 1556 1557 1558 1558 1559 1560 1560
1520 1521 1522 1522 1523 1524 1524 1525 1526 1527 1527 1527 1528 1528 1529 1529 1529 1529 1530 1530 1531 1532 1532 1533 1533 1535 1536 1537 1538 1538 1538 1538 1538 1539 1540 1541 1542 1543 1544 1545 1546 1547 1548 1548 1548 1549 1549 1550 1551 1551 1552 1553 1553 1554 1555 1555 1556 1557 1558 1558 1559 1560
1520 1520 1521 1521 1522 1523 1524 1524 1525 1526 1526 1527 1527 1528 1528 1528 1528 1528 1529 1529 1530 1530 1531 1533 1532 1533 1535 1535 1536 1537 1538 1538 1537 1537 1538 1540 1541 1541 1543 1544 1545 1546 1547 1548 1548 1548 1549 1549 1550 1550 1551 1552 1552 1553 1554 1554 1555 1556 1557 1558 1558 1559
1519 1519 1520 1521 1521 1522 1523 1524 1525 1525 1526 1526 1527 1527 1527 1527 1528 1528 1528 1528 1529 1529 1530 1531 1531 1532 1534 1534 1534 1536 1537 1537 1536 1536 1537 1538 1539 1540 1542 1543 1544 1545 1546 1547 1547 1548 1548 1548 1549 1549 1550 1551 1551 1552 1552 1553 1554 1555 1556 1557 1557 1558
1518 1519 1519 1520 1521 1521 1522 1523 1524 1524 1525 1526 1526 1527 1527 1527 1527 1527 1527 1528 1528 1529 1529 1530 1531 1532 1533 1533 1534 1535 1535 1535 1535 1535 1536 1537 1537 1538 1540 1540 1542 1543 1544 1545 1546 1547 1547 1547 1547 1548 1549 1549 1550 1551 1551 1552 1553 1554 1555 1555 1556 1557
1518 1519 1519 1520 1520 1521 1522 1522 1523 1524 1524 1525 1526 1526 1527 1527 1527 1527 1527 1528 1528 1529 1529 1529 1531 1531 1531 1532 1533 1534 1534 1533 1534 1535 1535 1536 1536 1537 1538 1539 1540 1541 1542 1543 1544 1545 1546 1546 1546 1547 1547 1548 1549 1550 1550 1551 1552 1553 1553 1554 1555 1556
1518 1519 1519 1520 1520 1521 1521 1522 1522 1523 1524 1524 1525 1526 1526 1527 1527 1527 1528 1528 1529 1529 1529 1530 1530 1530 1530 1531 1532 1533 1532 1532 1533 1534 1534 1535 1536 1536 1537 1537 1539 1540 1541 1542 1543 1544 1544 1545 1545 1546 1546 1546 1547 1548 1549 1550 1551 1551 1552 1553 1554 1554
1518 1518 1519 1519 1520 1521 1521 1522 1522 1523 1523 1524 1525 1525 1526 1526 1527 1527 1528 1528 1528 1529 1529 1529 1529 1529 1529 1530 1531 1531 1531 1532 1532 1532 1533 1534 1533 1534 1535 1536 1537 1538 1540 1541 1542 1543 1543 1543 1544 1545 1545 1545 1546 1547 1548 1549 1549 1550 1551 1552 1553 1553
1517 1518 1518 1519 1519 1520 1521 1522 1522 1522 1523 1524 1524 1525 1525 1526 1526 1527 1527 1528 1528 1528 1528 1527 1528 1528 1528 1529 1530 1530 1530 1531 1531 1531 1532 1532 1532 1534 1535 1535 1536 1537 1538 1541 1542 1542 1542 1542 1543 1543 1544 1544 1545 1545 1546 1547 1548 1549 1550 1551 1551 1552
1517 1517 1518 1519 1519 1520 1521 1522 1522 1523 1523 1524 1524 1525 1525 1525 1526 1526 1527 1527 1527 1527 1526 1526 1526 1526 1527 1528 1528 1529 1529 1530 1531 1531 1531 1531 1532 1534 1534 1535 1536 1535 1536 1539 1540 1540 1541 1541 1541 1542 1543 1543 1543 1544 1545 1546 1547 1547 1548 1549 1550 1551
1516 1517 1518 1519 1520 1521 1521 1522 1523 1523 1523 1524 1525 1525 1525 1525 1526 1526 1526 1527 1526 1526 1526 1525 1525 1525 1525 1526 1527 1527 1528 1529 1530 1530 1531 1531 1531 1532 1534 1534 1534 1534 1534 1536 1537 1538 1539 1539 1540 1540 1541 1541 1542 1543 1544 1544 1545 1546 1547 1547 1548 1549
1515 1516 1517 1518 1520 1521 1521 1522 1523 1524 1524 1524 1525 1525 1525 1525 1526 1526 1526 1526 1526 1526 1525 1525 1525 1524 1525 1525 1526 1527 1527 1528 1529 1529 1530 1530 1531 1532 1532 1532 1533 1533 1534 1534 1536 1537 1538 1538 1538 1539 1540 1540 1541 1542 1542 1543 1544 1544 1545 1545 1546 1547
1515 1516 1517 1518 1520 1521 1521 1522 1523 1523 1524 1524 1525 1525 1525 1526 1526 1526 1526 1526 1526 1525 1525 1524 1524 1524 1525 1525 1526 1526 1527 1528 1528 1529 1529 1529 1530 1531 1531 1532 1532 1533 1533 1533 1534 1535 1536 1536 1537 1538 1538 1539 1540 1540 1541 1541 1542 1543 1543 1543 1544 1545
1515 1516 1517 1518 1519 1520 1521 1521 1522 1523 1524 1524 1525 1525 1526 1526 1526 1526 1526 1527 1526 1526 1525 1525 1525 1524 1525 1525 1526 1526 1527 1527 1528 1528 1528 1529 1529 1530 1530 1531 1531 1532 1532 1533 1533 1534 1535 1535 1536 1536 1537 1538 1539 1539 1540 1540 1541 1541 1541 1541 1542 1543
1515 1516 1517 1518 1519 1520 1521 1521 1522 1523 1523 1524 1525 1525 1526 1526 1526 1526 1527 1527 1526 1526 1526 1525 1525 1525 1525 1525 1526 1526 1527 1527 1528 1528 1528 1529 1529 1529 1530 1530 1530 1531 1531 1532 1532 1533 1534 1534 1535 1535 1536 1537 1538 1538 1539 1539 1540 1539 1539 1540 1541 1541
1514 1515 1516 1517 1518 1520 1520 1521 1522 1523 1523 1524 1524 1525 1526 1526 1526 1526 1527 1527 1527 1527 1526 1526 1526 1526 1526 1526 1526 1526 1527 1527 1527 1528 1528 1528 1529 1529 1529 1529 1529 1530 1530 1531 1531 1532 1532 1533 1534 1535 1535 1536 1537 1537 1538 1538 1539 1539 1538 1539 1540 1540
1513 1514 1515 1516 1518 1519 1520 1521 1521 1522 1523 1524 1525 1525 1526 1526 1526 1526 1527 1527 1527 1527 1527 1527 1527 1527 1527 1527 1527 1527 1527 1527 1527 1528 1528 1528 1528 1528 1529 1528 1528 1529 1529 1530 1530 1531 1531 1532 1533 1533 1534 1535 1535 1535 1536 1537 1538 1538 1538 1537 1537 1538
1512 1513 1514 1515 1517 1518 1519 1520 1521 1522 1523 1524 1524 1525 1525 1526 1526 1526 1527 1527 1527 1528 1528 1527 1527 1527 1527 1528 1528 1528 1528 1528 1528 1528 1528 1528 1529 1529 1529 1528 1528 1528 1528 1528 1529 1529 1530 1530 1531 1532 1533 1533 1534 1534 1535 1536 1537 1537 1537 1536 1535 1536
1510 1511 1513 1514 1516 1517 1519 1519 1520 1521 1522 1523 1524 1524 1525 1526 1526 1526 1527 1527 1528 1528 1528 1528 1528 1528 1528 1528 1528 1529 1529 1529 1529 1529 1529 1529 1529 1529 1529 1528 1528 1528 1528 1528 1528 1528 1528 1529 1530 1530 1531 1532 1532 1533 1534 1535 1535 1535 1535 1534 1533 1533
1509 1511 1512 1513 1515 1516 1518 1518 1519 1520 1522 1523 1523 1524 1525 1525 1526 1526 1526 1527 1527 1528 1528 1529 1529 1528 1528 1528 1529 1529 1529 1529 1529 1529 1529 1529 1529 1529 1529 1528 1528 1528 1528 1527 1527 1528 1528 1528 1529 1529 1529 1530 1530 1531 1532 1532 1533 1533 1533 1533 1532 1532
1508 1509 1510 1512 1513 1515 1516 1517 1518 1519 1520 1522 1522 1523 1524 1525 1525 1525 1526 1526 1527 1528 1528 1528 1529 1529 1529 1529 1529 1529 1529 1529 1529 1529 1529 1529 1529 1529 1528 1528 1528 1527 1527 1527 1527 1527 1527 1527 1527 1528 1528 1528 1528 1529 1529 1530 1530 1531 1531 1531 1530 1530
1505 1507 1509 1510 1512 1513 1515 1516 1517 1518 1519 1520 1521 1522 1523 1524 1524 1525 1525 1526 1526 1527 1528 1528 1528 1528 1529 1529 1529 1529 1529 1529 1529 1529 1529 1529 1529 1528 1528 1528 1527 1527 1527 1526 1526 1526 1526 1526 1526 1526 1526 1526 1527 1527 1527 1528 1529 1529 1530 1530 1529 1529
1503 1506 1507 1508 1510 1511 1513 1514 1516 1517 1518 1519 1520 1521 1522 1523 1523 1524 1524 1525 1525 1526 1527 1527 1528 1528 1528 1528 1528 1528 1528 1528 1528 1528 1528 1528 1528 1528 1528 1528 1527 1527 1526 1526 1526 1526 1526 1525 1525 1525 1525 1525 1525 1525 1526 1526 1527 1528 1528 1528 1528 1527
1501 1503 1505 1507 1508 1509 1511 1513 1514 1515 1516 1517 1518 1520 1521 1521 1522 1523 1523 1523 1524 1525 1526 1526 1527 1527 1527 1528 1528 1528 1528 1528 1528 1528 1528 1528 1528 1528 1528 1527 1527 1527 1526 1526 1525 1525 1525 1525 1524 1524 1523 1523 1524 1524 1524 1524 1525 1525 1526 1526 1526 1526
1499 1501 1503 1505 1506 1508 1509 1511 1512 1513 1514 1516 1517 1518 1519 1520 1521 1521 1522 1522 1523 1523 1524 1525 1525 1526 1526 1526 1527 1527 1527 1527 1527 1527 1527 1527 1527 1527 1527 1527 1527 1526 1526 1525 1525 1524 1524 1523 1523 1523 1523 1522 1522 1522 1523 1523 1523 1523 1524 1524 1524 1524
1499 1500 1502 1503 1504 1506 1508 1509 1510 1511 1513 1514 1515 1516 1517 1518 1519 1520 1520 1521 1521 1522 1522 1523 1524 1524 1525 1525 1525 1526 1526 1526 1526 1526 1526 1526 1526 1526 1526 1526 1526 1526 1525 1525 1524 1524 1523 1523 1522 1522 1522 1521 1521 1521 1521 1521 1522 1522 1522 1522 1522 1522